• En España
  • Lista de países
  • Para 7 días
  • Temperatura del agua
  • Mapa Satelital
  • El tiempo en el mapa
  • Informadores
  • user-avatar
    Iniciar sesión

    Tiempo cada hora Bolshoe Ogarevo

    Hoy, 25 Septiembre, Martes

    Tiempo Temperatura Precipitaciones Viento Presión Humedad
    00:00 +10°C° 0.1 mm 8 mps 731 mmHg 86%
    01:00 +9°C° 0 mm 8 mps 732 mmHg 85%
    02:00 +8°C° 0 mm 7 mps 732 mmHg 85%
    03:00 +8°C° 0 mm 7 mps 732 mmHg 85%
    04:00 +6°C° 0 mm 7 mps 732 mmHg 84%
    05:00 +7°C° 0 mm 6 mps 732 mmHg 84%
    06:00 +7°C° 0 mm 6 mps 733 mmHg 84%
    07:00 +7°C° 0 mm 6 mps 733 mmHg 83%
    08:00 +6°C° 0 mm 7 mps 733 mmHg 82%
    09:00 +6°C° 0 mm 7 mps 734 mmHg 81%
    10:00 +8°C° 0.1 mm 7 mps 734 mmHg 78%
    11:00 +8°C° 0.1 mm 7 mps 735 mmHg 75%
    12:00 +9°C° 0.1 mm 7 mps 736 mmHg 72%
    13:00 +9°C° 0.1 mm 7 mps 736 mmHg 72%
    14:00 +8°C° 0.1 mm 7 mps 737 mmHg 72%
    15:00 +8°C° 0.1 mm 7 mps 737 mmHg 71%
    16:00 +8°C° 0 mm 7 mps 738 mmHg 72%
    17:00 +7°C° 0 mm 6 mps 738 mmHg 72%
    18:00 +7°C° 0 mm 6 mps 739 mmHg 73%
    19:00 +5°C° 0 mm 6 mps 740 mmHg 74%
    20:00 +6°C° 0 mm 5 mps 740 mmHg 75%
    21:00 +6°C° 0 mm 5 mps 741 mmHg 76%
    22:00 +6°C° 0 mm 5 mps 741 mmHg 76%
    23:00 +6°C° 0 mm 5 mps 742 mmHg 76%

    Mañana, 26 Septiembre, Miércoles

    Tiempo Temperatura Precipitaciones Viento Presión Humedad
    00:00 +5°C° 0 mm 5 mps 742 mmHg 77%
    01:00 +5°C° 0 mm 5 mps 743 mmHg 79%
    02:00 +5°C° 0 mm 5 mps 743 mmHg 81%
    03:00 +4°C° 0 mm 4 mps 744 mmHg 83%
    04:00 +4°C° 0 mm 4 mps 744 mmHg 84%
    05:00 +3°C° 0 mm 4 mps 745 mmHg 85%
    06:00 +3°C° 0 mm 4 mps 745 mmHg 86%
    07:00 +2°C° 0 mm 5 mps 746 mmHg 83%
    08:00 +3°C° 0 mm 5 mps 746 mmHg 79%
    09:00 +5°C° 0 mm 5 mps 747 mmHg 75%
    10:00 +6°C° 0 mm 5 mps 747 mmHg 71%
    11:00 +6°C° 0 mm 5 mps 748 mmHg 66%
    12:00 +7°C° 0 mm 5 mps 748 mmHg 61%
    13:00 +8°C° 0 mm 5 mps 748 mmHg 59%
    14:00 +8°C° 0 mm 5 mps 748 mmHg 57%
    15:00 +9°C° 0 mm 5 mps 748 mmHg 54%
    16:00 +8°C° 0 mm 4 mps 748 mmHg 57%
    17:00 +8°C° 0 mm 3 mps 748 mmHg 61%
    18:00 +7°C° 0 mm 3 mps 748 mmHg 64%
    19:00 +7°C° 0 mm 3 mps 748 mmHg 65%
    20:00 +5°C° 0 mm 3 mps 748 mmHg 67%
    21:00 +4°C° 0 mm 3 mps 748 mmHg 68%
    22:00 +4°C° 0 mm 4 mps 748 mmHg 69%
    23:00 +3°C° 0 mm 5 mps 747 mmHg 70%

    Pasado mañana, 27 Septiembre, Jueves

    Tiempo Temperatura Precipitaciones Viento Presión Humedad
    00:00 +3°C° 0 mm 5 mps 747 mmHg 71%
    01:00 +4°C° 0 mm 6 mps 746 mmHg 70%
    02:00 +4°C° 0 mm 6 mps 745 mmHg 68%
    03:00 +4°C° 0 mm 7 mps 745 mmHg 66%
    04:00 +4°C° 0.3 mm 8 mps 744 mmHg 67%
    05:00 +4°C° 0.3 mm 8 mps 743 mmHg 68%
    06:00 +3°C° 0.3 mm 9 mps 742 mmHg 69%
    07:00 +3°C° 0.7 mm 10 mps 741 mmHg 73%
    08:00 +3°C° 0.7 mm 10 mps 741 mmHg 76%
    09:00 +3°C° 0.7 mm 10 mps 740 mmHg 80%
    10:00 +5°C° 0.3 mm 10 mps 740 mmHg 81%
    11:00 +5°C° 0.3 mm 10 mps 739 mmHg 83%
    12:00 +5°C° 0.3 mm 9 mps 739 mmHg 84%
    13:00 +6°C° 0.3 mm 9 mps 739 mmHg 85%
    14:00 +6°C° 0.3 mm 9 mps 739 mmHg 86%
    15:00 +7°C° 0.3 mm 8 mps 738 mmHg 87%
    16:00 +7°C° 0.3 mm 8 mps 739 mmHg 87%
    17:00 +8°C° 0.3 mm 7 mps 739 mmHg 88%
    18:00 +9°C° 0.3 mm 7 mps 739 mmHg 89%
    19:00 +8°C° 0.1 mm 6 mps 740 mmHg 89%
    20:00 +8°C° 0.1 mm 5 mps 740 mmHg 89%
    21:00 +8°C° 0.1 mm 5 mps 741 mmHg 89%
    22:00 +7°C° 0 mm 4 mps 741 mmHg 89%
    23:00 +6°C° 0 mm 4 mps 741 mmHg 89%

    28 Septiembre, Viernes

    Tiempo Temperatura Precipitaciones Viento Presión Humedad
    00:00 +6°C° 0 mm 4 mps 742 mmHg 90%
    01:00 +5°C° 0 mm 4 mps 742 mmHg 90%
    02:00 +5°C° 0 mm 4 mps 742 mmHg 91%
    03:00 +5°C° 0 mm 4 mps 742 mmHg 91%
    04:00 +4°C° 0 mm 3 mps 742 mmHg 91%
    05:00 +4°C° 0 mm 3 mps 742 mmHg 92%
    06:00 +4°C° 0 mm 3 mps 742 mmHg 92%
    07:00 +5°C° 0 mm 4 mps 742 mmHg 86%
    08:00 +7°C° 0 mm 5 mps 742 mmHg 80%
    09:00 +8°C° 0 mm 6 mps 742 mmHg 74%
    10:00 +9°C° 0 mm 7 mps 741 mmHg 75%
    11:00 +11°C° 0 mm 8 mps 741 mmHg 76%
    12:00 +13°C° 0 mm 9 mps 740 mmHg 77%
    13:00 +13°C° 0 mm 8 mps 740 mmHg 78%
    14:00 +13°C° 0 mm 8 mps 739 mmHg 79%
    15:00 +13°C° 0 mm 8 mps 739 mmHg 80%
    16:00 +12°C° 0 mm 8 mps 738 mmHg 81%
    17:00 +12°C° 0 mm 8 mps 738 mmHg 82%
    18:00 +12°C° 0 mm 8 mps 737 mmHg 82%
    19:00 +13°C° 0.5 mm 8 mps 737 mmHg 83%
    20:00 +13°C° 0.5 mm 8 mps 737 mmHg 84%
    21:00 +13°C° 0.5 mm 8 mps 737 mmHg 85%
    22:00 +12°C° 0.4 mm 7 mps 737 mmHg 84%
    23:00 +11°C° 0.4 mm 7 mps 738 mmHg 84%

    29 Septiembre, Sábado

    Tiempo Temperatura Precipitaciones Viento Presión Humedad
    00:00 +10°C° 0.4 mm 6 mps 738 mmHg 84%
    01:00 +9°C° 0 mm 5 mps 739 mmHg 86%
    02:00 +7°C° 0 mm 5 mps 740 mmHg 88%
    03:00 +6°C° 0 mm 4 mps 740 mmHg 89%
    04:00 +5°C° 0 mm 3 mps 741 mmHg 90%
    05:00 +4°C° 0 mm 3 mps 742 mmHg 91%
    06:00 +5°C° 0 mm 2 mps 742 mmHg 92%
    07:00 +4°C° 0 mm 3 mps 743 mmHg 87%
    08:00 +4°C° 0 mm 3 mps 743 mmHg 82%
    09:00 +5°C° 0 mm 3 mps 744 mmHg 77%
    10:00 +7°C° 0 mm 3 mps 744 mmHg 69%
    11:00 +8°C° 0 mm 3 mps 745 mmHg 60%
    12:00 +9°C° 0 mm 2 mps 745 mmHg 52%
    13:00 +9°C° 0 mm 2 mps 745 mmHg 49%
    14:00 +10°C° 0 mm 2 mps 745 mmHg 47%
    15:00 +10°C° 0 mm 2 mps 745 mmHg 44%
    16:00 +9°C° 0 mm 2 mps 745 mmHg 47%
    17:00 +9°C° 0 mm 2 mps 745 mmHg 50%
    18:00 +8°C° 0 mm 2 mps 745 mmHg 54%
    19:00 +7°C° 0 mm 2 mps 746 mmHg 55%
    20:00 +7°C° 0 mm 2 mps 746 mmHg 57%
    21:00 +6°C° 0 mm 2 mps 747 mmHg 58%
    22:00 +5°C° 0 mm 2 mps 747 mmHg 60%
    23:00 +5°C° 0 mm 2 mps 747 mmHg 62%

    30 Septiembre, Domingo

    Tiempo Temperatura Precipitaciones Viento Presión Humedad
    00:00 +4°C° 0 mm 2 mps 748 mmHg 64%
    01:00 +4°C° 0 mm 2 mps 748 mmHg 66%
    02:00 +4°C° 0 mm 2 mps 748 mmHg 67%
    03:00 +4°C° 0 mm 2 mps 749 mmHg 69%
    04:00 +3°C° 0 mm 2 mps 749 mmHg 71%
    05:00 +3°C° 0 mm 2 mps 749 mmHg 73%
    06:00 +3°C° 0 mm 2 mps 750 mmHg 75%
    07:00 +4°C° 0 mm 2 mps 750 mmHg 73%
    08:00 +5°C° 0 mm 2 mps 750 mmHg 71%
    09:00 +6°C° 0 mm 2 mps 751 mmHg 69%
    10:00 +7°C° 0 mm 2 mps 751 mmHg 65%
    11:00 +8°C° 0 mm 2 mps 751 mmHg 61%
    12:00 +9°C° 0 mm 2 mps 751 mmHg 57%
    13:00 +9°C° 0 mm 2 mps 751 mmHg 55%
    14:00 +10°C° 0 mm 1 mps 751 mmHg 54%
    15:00 +11°C° 0 mm 1 mps 751 mmHg 52%
    16:00 +10°C° 0 mm 1 mps 751 mmHg 54%
    17:00 +9°C° 0 mm 0 mps 750 mmHg 57%
    18:00 +8°C° 0 mm 0 mps 750 mmHg 59%
    19:00 +7°C° 0 mm 0 mps 751 mmHg 60%
    20:00 +8°C° 0 mm 1 mps 751 mmHg 61%
    21:00 +7°C° 0 mm 1 mps 751 mmHg 62%
    22:00 +7°C° 0 mm 1 mps 751 mmHg 64%
    23:00 +6°C° 0 mm 1 mps 750 mmHg 66%
    Mostrar más